Location: Creston
(40.9870°N, 81.8938°W)
Time: 08:53:53
(UTC+00:00)

NOSS 3-3 (C) - Pass Details

Date: 29 October 2020
Orbit: 825 x 1387 km, 63.4° (Epoch: 22 November)

Event Time Altitude Azimuth Distance (km) Brightness Sun altitude
Rises 23:23:30 0° 204° (SSW) 3,373 7.3 -11.3°
Reaches altitude 10° 23:25:52 10° 202° (SSW) 2,473 6.5 -11.8°
Maximum altitude 23:31:30 68° 120° (ESE) 974 3.8 -12.8°
Drops below altitude 10° 23:37:49 10° 39° (NE) 2,767 6.0 -14.0°
Enters shadow 23:38:38 - 38° (NE) 3,068 6.2 -14.1°
